Location: Collado de Piedrafita
(42.7882°N, 0.2587°W)
Time: 23:21:44
(UTC+00:00)

Daily predictions for brighter satellites

Satellite Brightness Start Highest point End
(mag) Time Altitude Azimuth Time Altitude Azimuth Time Altitude Azimuth
Cosmos 2219 Rocket 2.9 17:59:55 10° SW 18:05:25 58° WNW 18:10:57 10° NNE
Cosmos 1470 Rocket 3.8 18:02:13 10° S 18:06:34 79° W 18:11:01 10° N
Meteor PRIRODA 3.6 18:03:28 10° SSE 18:06:56 57° ENE 18:10:25 10° N
Tiangong -1.6 18:05:17 10° WSW 18:08:18 46° SSE 18:11:20 10° E
Helios 1A 4.4 18:05:02 10° N 18:08:53 41° WNW 18:12:45 10° SW
USA 305 1.2 18:11:54 10° NW 18:14:08 84° SW 18:16:24 10° SE
USA 307 2.4 18:13:03 10° WNW 18:15:33 51° SW 18:18:09 10° SE
CZ-4B R/B 2.8 18:13:46 10° SE 18:17:06 45° ENE 18:20:28 10° N
Meteor 1-29 3.5 18:15:52 10° S 18:18:39 50° WSW 18:21:27 10° NNW
NOSS 3-1 (A) 3.1 18:21:19 10° SSW 18:26:04 54° ESE 18:31:37 10° NE
GEOS 3 Rocket 4.2 18:21:24 10° NNE 18:26:42 61° NW 18:31:53 10° SW
Cosmos 1733 Rocket 4.4 18:26:13 10° SE 18:29:13 18° E 18:32:12 10° NE
Cosmos 1975 4.1 18:26:01 10° SSW 18:29:42 43° WNW 18:33:26 10° N
Cosmos 2218 Rocket 4.3 18:25:36 10° NNW 18:31:43 72° W 18:37:51 10° S
IGS 5A 3.7 18:28:12 10° SE 18:32:06 46° ENE 18:36:03 10° N
ADEOS 3.8 18:29:26 10° S 18:34:39 76° WSW 18:39:53 10° NNW
CZ-4B DEB 4.2 18:30:29 10° SSE 18:35:49 61° ENE 18:41:11 10° N
H-2A R/B (2) 3.8 18:34:56 10° S 18:36:06 11° SSE 18:37:36 10° SE
Cosmos 1269 Rocket 4.0 18:32:26 10° SSW 18:37:42 75° ESE 18:43:00 10° NNE
Cosmos 1703 Rocket 3.9 18:34:58 10° NNW 18:39:25 72° W 18:43:52 10° S
Cosmos 1980 3.7 18:33:54 10° S 18:39:26 61° ESE 18:45:00 10° NNE
Cosmos 1933 Rocket 4.3 18:40:44 10° SSW 18:45:01 55° W 18:49:19 10° N
Cosmos 1766 3.0 18:41:59 10° S 18:45:44 75° E 18:49:30 10° NNE
CZ-4B R/B 3.6 18:41:40 10° SE 18:46:33 40° ENE 18:51:29 10° N
Cosmos 1867 3.5 18:41:20 10° SSW 18:46:41 66° ESE 18:52:06 10° NE
Cosmos 614 Rocket 4.1 18:41:46 10° SSW 18:46:49 77° WNW 18:51:54 10° NNE
Cosmos 2242 Rocket 3.6 18:43:13 10° N 18:47:44 65° E 18:52:14 10° SSE
Cosmos 1140 Rocket 4.3 18:44:54 10° SSE 18:49:12 28° E 18:53:33 10° NE
Okean 2 3.6 18:48:22 10° NNW 18:52:23 71° W 18:56:21 10° S
Cosmos 2278 Rocket 2.1 18:47:16 10° NNW 18:52:58 81° ENE 18:58:38 10° SSE
Cosmos 1992 Rocket 4.0 18:49:55 10° NNW 18:55:10 85° WSW 19:00:24 10° SSE
PAYLOAD B 4.2 18:50:32 10° SSE 18:56:02 68° ENE 19:01:33 10° N
ISS -2.2 18:53:28 10° WNW 18:56:29 32° SW 18:59:01 13° SSE
CZ-4C R/B 3.6 18:56:16 10° NNE 18:59:24 33° E 19:02:37 10° SSE
Cosmos 1934 Rocket 4.2 18:55:55 10° N 19:02:02 50° ENE 19:08:01 10° SSE
USA 276 1.7 18:59:46 10° SW 19:02:13 55° SSE 19:02:13 55° SSE
NOSS 3-1 (C) 4.3 18:58:10 10° WSW 19:02:57 42° NW 19:08:37 10° NNE
SL-08 R/B 4.4 18:59:02 10° N 19:05:11 89° W 19:11:19 10° S
Cosmos 2251 Rocket 4.0 19:04:32 10° SSE 19:09:20 36° ESE 19:14:07 10° NE
YAOGAN 1 3.2 19:05:25 10° S 19:09:39 57° W 19:13:54 10° NNW
CZ-4 R/B 1.1 19:12:15 23° SSE 19:14:30 75° ENE 19:18:19 10° N
Cosmos 2237 Rocket 2.4 19:11:50 10° SSW 19:17:30 73° WNW 19:23:14 10° NNE
SL-4 R/B 2.2 19:14:09 10° SW 19:18:24 53° SE 19:19:00 48° ESE
Cosmos 2369 Rocket 3.7 19:17:04 10° N 19:21:01 19° NE 19:21:10 19° NE
Lacrosse 5 3.3 19:16:53 10° NNW 19:21:07 25° NNE 19:22:30 22° NE
COSMOS 2455 4.1 19:19:29 10° NW 19:25:03 40° WSW 19:30:34 10° S
SL-16 R/B 2.4 19:21:47 10° S 19:27:05 43° ESE 19:32:25 10° NE
Cosmos 1470 2.8 19:23:55 10° SSW 19:27:45 78° W 19:31:38 10° N
Meteor 1-22 Rocket 4.0 19:26:26 10° S 19:31:38 64° E 19:36:54 10° NNE
SJ-6B 2.8 19:30:49 40° S 19:32:11 85° WSW 19:36:12 10° NNW
Cosmos 1943 Rocket 2.1 19:27:36 10° NNW 19:33:18 80° ENE 19:35:35 38° SSE
Landsat 7 4.0 19:31:13 14° S 19:35:17 70° WSW 19:40:00 10° NNW
ATLAS 3B R/B 4.2 19:31:24 10° WSW 19:37:46 36° NW 19:44:34 10° NNE
Cosmos 2221 Rocket 3.7 19:34:55 10° N 19:38:56 56° NE 19:38:56 56° NE
Okean O Rocket 1.5 19:39:33 61° SSE 19:40:17 84° ENE 19:44:45 10° NNW
CENTAUR R/B 4.2 19:33:47 10° NNW 19:40:33 29° NNE 19:43:21 25° ENE
ADEOS Rocket 3.6 19:38:44 36° SE 19:41:46 56° ENE 19:48:45 10° N
Tiangong -0.4 19:41:45 10° W 19:43:35 32° WSW 19:43:35 32° WSW
Cosmos 2297 4.2 19:40:10 10° NNW 19:45:25 40° NE 19:45:25 40° NE
Meteor 1-12 Rocket 4.2 19:41:33 10° S 19:47:22 89° WNW 19:53:20 10° N
CSL-04 Debris 4.0 19:48:22 50° SSE 19:49:51 83° ENE 19:55:18 10° NNW
Resurs 1-3 4.0 19:54:32 46° SSW 19:55:30 58° W 19:59:50 10° NNW
Cosmos 407 Rocket 3.3 19:52:31 10° SSW 19:57:45 86° ESE 20:03:05 10° NNE
USA 229 DEB 3.6 19:54:02 10° SW 20:00:09 73° NW 20:06:53 10° NNE
USA 229 3.6 19:54:06 10° SW 20:00:15 73° NW 20:06:59 10° NNE
Meteor 1-24 Rocket 3.5 19:59:05 10° NNW 20:04:27 81° W 20:04:58 72° SSW
CSL-04 Rocket 3.6 20:05:53 70° SSW 20:06:25 79° WSW 20:11:46 10° NNW
Cosmos 1733 Rocket 4.4 20:02:34 10° SW 20:06:39 38° WNW 20:10:44 10° N
Resurs 01 Rocket 2.8 20:09:57 35° N 20:09:57 35° N 20:12:33 10° N
Meteor 2-5 Rocket 3.8 20:03:32 10° NNW 20:09:09 70° W 20:10:22 53° SSW
SPOT 1/Viking Rocket 3.6 20:10:54 70° SW 20:11:10 71° WSW 20:16:18 10° NNW
USA 215 4.4 20:14:22 28° S 20:14:22 28° S 20:17:25 10° SSW
Okean-O 4.3 20:24:15 29° NNW 20:24:15 29° NNW 20:26:25 10° NNW
USA 267 4.0 20:45:35 40° NNE 20:45:35 40° NNE 20:51:17 10° NW
Lacrosse 5 3.9 20:59:34 10° NW 21:01:41 25° NW 21:01:41 25° NW
Cosmos 2369 Rocket 3.7 21:00:04 10° NNW 21:02:58 32° NNW 21:02:58 32° NNW
SL-16 R/B 3.8 21:06:21 10° WSW 21:11:19 30° NW 21:16:19 10° N
CZ-4C R/B 4.1 21:19:01 10° NNW 21:23:20 33° N 21:23:20 33° N
CENTAUR R/B 3.6 21:24:07 10° NW 21:30:30 58° NNW 21:30:30 58° NNW
